Volver al catálogo

SL-8 DEB

ActivoLEO
NORAD 13517·DEBRIS·🇷🇺 Russia

Lanzado Mar 15, 1965 desde Baikonur Cosmodrome

Loading…

Próximos Pases (próximas 24 horas)

TLE

ActualizadoSource: Space-Track

Época: Sep 14, 2026, 09:52 UTC

1 13517U 65020FF  26257.41131734  .00000688  00000-0  61410-3 0  9993
2 13517  55.5730  23.9984 0521071 287.9310 104.5627 13.44167084148078

Sigue SL-8 DEB en tiempo real con AllMySat

Download on the App Store